Regional Weather Roundup
Issued by NWS

Home | Current Version | Previous Version | Text Only | Print | Product List | Glossary Off
Versions: 1 2 3 4 5 6 7 8 9 10 11 12 13 14 15 16 17 18 19 20 21 22 23 24 25 26 27 28 29 30 31 32 33 34 35 36 37 38 39 40 41 42 43 44 45 46 47 48 49 50

601
ASUS43 KDMX 120308
RWRIA

WEATHER ROUNDUP FOR IOWA
NATIONAL WEATHER SERVICE DES MOINES IA
900 PM CST THU FEB 11 2016

NOTE: "FAIR" INDICATES FEW OR NO CLOUDS BELOW 12,000 FEET WITH NO
SIGNIFICANT WEATHER AND/OR OBSTRUCTIONS TO VISIBILITY.

* - THESE STATIONS ARE NOT NWS STATIONS...THUS NOT UNDER NWS
QUALITY CONTROL.  THEY ALSO DO NOT REPORT WEATHER SUCH
AS PRECIPITATION OR FOG.

IAZ001>003-012>014-020>022-031>034-043>046-120400-
   NORTHWEST IOWA

CITY           SKY/WX    TMP DP  RH WIND       PRES   REMARKS
CARROLL *      CLOUDY    16  14  93 SE7       30.22S WCI   6
CHEROKEE *     CLOUDY    14  12  92 CALM      30.23R
DENISON *      CLOUDY    16  14  93 CALM      30.19S
LE MARS *      CLOUDY    18  18 100 CALM      30.24R
ORANGE CITY *  MOCLDY    16  14  93 CALM      30.21S
SHELDON *      MOCLDY    10  10 100 CALM      30.20R
SIOUX CITY     CLOUDY    19  15  84 E3        30.23R
SPENCER        CLOUDY     9   6  88 SW5       30.21S WCI   1
STORM LAKE *   PTCLDY    12  12 100 S6        30.20S WCI   3
$$

IAZ055>058-069>071-079>083-090>094-120400-
   SOUTHWEST IOWA

CITY           SKY/WX    TMP DP  RH WIND       PRES   REMARKS
ATLANTIC *     LGT SNOW  19  18  93 E6        30.21S WCI  11
AUDUBON *      LGT SNOW  18  16  93 SE5       30.21S WCI  11
CLARINDA *     CLOUDY    30  19  64 CALM      30.22R
COUNCIL BLFS * CLOUDY    25  19  80 NE7       30.19S WCI  17
CRESTON *      LGT SNOW  21  16  79 E10       30.21S WCI  10
HARLAN  *      FLURRIES  19  18  93 SE6       30.24S WCI  11
LAMONI         CLOUDY    25  13  60 E5        30.21S WCI  19
RED OAK *      CLOUDY    28  21  74 E5        30.20S WCI  23
SHENANDOAH *   CLOUDY    30  23  74 CALM      30.20S
$$

IAZ047>049-059>061-072>074-084-120400-
   CENTRAL IOWA

CITY           SKY/WX    TMP DP  RH WIND       PRES   REMARKS
AMES           LGT SNOW  16  13  88 SE3       30.25F FOG
ANKENY *       CLOUDY    18  16  93 CALM      30.26F
BOONE *        CLOUDY    16  12  86 E6        30.22F FOG     WCI   7
CHARITON *     LGT SNOW  19  16  86 E8        30.24S WCI   9
DES MOINES     LGT SNOW  19  14  81 E5        30.25F WCI  12
GRINNELL*      LGT SNOW  19  16  86 CALM      30.25F
KNOXVILLE *    LGT SNOW  19  16  86 SE5       30.24F WCI  13
MARSHALLTOWN   LGT SNOW  17  11  77 CALM      30.25S
NEWTON *       LGT SNOW  18  18 100 CALM      30.26S
PELLA *        LGT SNOW  19  16  86 CALM      30.27F
$$

IAZ004>006-015-016-023>025-035-036-120400-
   NORTH CENTRAL IOWA

CITY           SKY/WX    TMP DP  RH WIND       PRES   REMARKS
ALGONA *       PTCLDY     9   7  92 S9        30.20F WCI  -5
CLARION *      CLOUDY    10   7  85 S8        30.22F WCI  -1
ESTHERVILLE    CLOUDY     7   5  91 SW8       30.20S WCI  -6
FORT DODGE *   MOCLDY    12   9  85 CALM      30.23F
MASON CITY     CLOUDY     8   4  83 S5        30.23F WCI   0
FOREST CITY *  MOCLDY     9   5  85 CALM      30.21F
WEBSTER CITY * CLOUDY    14  10  85 SE6       30.21F WCI   5
IOWA FALLS *   CLOUDY    14  10  85 CALM      30.24F
$$

IAZ007>011-017>019-026>030-037>042-050>054-066-120400-
   NORTHEAST IOWA

CITY           SKY/WX    TMP DP  RH WIND       PRES   REMARKS
CEDAR RAPIDS   CLOUDY    20  13  74 S3        30.25F
CHARLES CITY * CLOUDY    10   1  67 SW3       30.24F
CLINTON *      CLOUDY    18  11  74 CALM      30.28F
DECORAH *      CLOUDY    10   1  67 CALM      30.22F
DUBUQUE        MOCLDY    12   4  70 CALM      30.24F
MONTICELLO *   HAZE      16   9  73 CALM      30.26F VSB 3/4
OELWEIN *      PTCLDY    12   3  67 CALM      30.24F
WATERLOO       CLOUDY    12   5  73 CALM      30.26F
$$

IAZ064-065-067-068-078-120400-
   EAST CENTRAL IOWA

CITY           SKY/WX    TMP DP  RH WIND       PRES   REMARKS
DAVENPORT      CLOUDY    21   7  54 CALM      30.27F
IOWA CITY      CLOUDY    22   8  55 S5        30.28F WCI  16
MT. PLEASANT * LGT SNOW  23  18  80 SW3       30.28S
MUSCATINE *    CLOUDY    25   9  50 S6        30.29F WCI  18
QUAD CITIES    CLOUDY    22   7  52 CALM      30.28F
$$

IAZ062-063-075>077-085>089-095>099-120400-
   SOUTHEAST IOWA

CITY           SKY/WX    TMP DP  RH WIND       PRES   REMARKS
BURLINGTON     CLOUDY    22  12  65 CALM      30.27F
FAIRFIELD *    LGT SNOW  21  18  86 CALM      30.27F
FORT MADISON * CLOUDY    23  12  63 CALM      30.28F
KEOKUK *       MIX PCPN  23  12  63 VRB3      30.27F
OSKALOOSA *    LGT SNOW  19  18  93 S3        30.27S
CENTERVILLE *  FLURRIES  19  18  93 E6        30.24F WCI  11
OTTUMWA        LGT SNOW  20  18  92 S3        30.26S FOG
WASHINGTON *   MIX PCPN  21  16  79 SW6       30.29S WCI  14
$$

ABBREVIATIONS USED IN REMARKS
   TC - TEMPERATURES IN CELSIUS
  WCI - WIND CHILL INDEX
   HX - HEAT INDEX
  VSB - VISIBILITY
$$





USA.gov is the U.S. government's official web portal to all federal, state and local government web resources and services.